| time (UTC) | temp F | wind direction | speed knots | gust knots | rain 1hr in | rain 24hr in | rain mn in | humidity % | barometer mb |
| 20260504215657 | 80 | 122 | 3.5 | 10.4 | 0.00 | 0.00 | 0.00 | 10 | 1023.3 |
| 20260504214757 | 83 | 122 | 2.6 | 13.0 | 0.00 | 0.00 | 0.00 | 10 | 1023.3 |
| 20260504213857 | 84 | 82 | 2.6 | 9.6 | 0.00 | 0.00 | 0.00 | 10 | 1023.3 |
| 20260504212957 | 84 | 76 | 0.9 | 9.6 | 0.00 | 0.00 | 0.00 | 10 | 1023.4 |
| 20260504212057 | 84 | 54 | 3.5 | 8.7 | 0.00 | 0.00 | 0.00 | 10 | 1023.4 |
| 20260504211157 | 83 | 90 | 2.6 | 7.8 | 0.00 | 0.00 | 0.00 | 11 | 1023.3 |
| 20260504210257 | 82 | 115 | 3.5 | 7.0 | 0.00 | 0.00 | 0.00 | 10 | 1023.5 |
| 20260504205357 | 82 | 115 | 1.7 | 8.7 | 0.00 | 0.00 | 0.00 | 10 | 1023.5 |
| 20260504204457 | 82 | 51 | 1.7 | 7.0 | 0.00 | 0.00 | 0.00 | 10 | 1023.7 |
| 20260504203557 | 81 | 141 | 1.7 | 7.8 | 0.00 | 0.00 | 0.00 | 10 | 1023.6 |
| 20260504202657 | 81 | 115 | 1.7 | 7.0 | 0.00 | 0.00 | 0.00 | 10 | 1023.8 |
| 20260504200857 | 81 | 92 | 2.6 | 7.8 | 0.00 | 0.00 | 0.00 | 13 | 1024.0 |
| 20260504195957 | 79 | 75 | 3.5 | 7.8 | 0.00 | 0.00 | 0.00 | 14 | 1024.0 |
| 20260504194157 | 77 | 132 | 1.7 | 7.0 | 0.00 | 0.00 | 0.00 | 21 | 1024.2 |
| 20260504193256 | 77 | 101 | 2.6 | 8.7 | 0.00 | 0.00 | 0.00 | 20 | 1024.4 |
| 20260504192357 | 77 | 84 | 3.5 | 8.7 | 0.00 | 0.00 | 0.00 | 22 | 1024.6 |
| 20260504191457 | 75 | 122 | 1.7 | 6.1 | 0.00 | 0.00 | 0.00 | 25 | 1024.6 |
| 20260504190557 | 75 | 92 | 2.6 | 7.0 | 0.00 | 0.00 | 0.00 | 28 | 1024.7 |
| 20260504185656 | 74 | 58 | 2.6 | 7.0 | 0.00 | 0.00 | 0.00 | 26 | 1024.7 |
| 20260504184756 | 74 | 86 | 3.5 | 6.1 | 0.00 | 0.00 | 0.00 | 27 | 1024.9 |
| 20260504183857 | 73 | 118 | 1.7 | 6.1 | 0.00 | 0.00 | 0.00 | 27 | 1024.9 |
| 20260504182956 | 73 | 103 | 3.5 | 7.0 | 0.00 | 0.00 | 0.00 | 27 | 1024.9 |
| 20260504182056 | 72 | 107 | 1.7 | 6.1 | 0.00 | 0.00 | 0.00 | 30 | 1025.0 |
| 20260504181156 | 72 | 100 | 2.6 | 6.1 | 0.00 | 0.00 | 0.00 | 32 | 1025.1 |
| 20260504180256 | 70 | 120 | 2.6 | 7.0 | 0.00 | 0.00 | 0.00 | 34 | 1025.3 |
| 20260504175356 | 70 | 97 | 3.5 | 7.0 | 0.00 | 0.00 | 0.00 | 32 | 1025.4 |
| 20260504174456 | 69 | 80 | 2.6 | 7.0 | 0.00 | 0.00 | 0.00 | 33 | 1025.4 |
| 20260504173556 | 69 | 89 | 1.7 | 5.2 | 0.00 | 0.00 | 0.00 | 35 | 1025.5 |
| 20260504172657 | 68 | 85 | 1.7 | 7.8 | 0.00 | 0.00 | 0.00 | 37 | 1025.5 |
| 20260504171756 | 67 | 94 | 3.5 | 7.8 | 0.00 | 0.00 | 0.00 | 36 | 1025.6 |
| 20260504170856 | 67 | 100 | 2.6 | 7.8 | 0.00 | 0.00 | 0.00 | 36 | 1025.6 |
| 20260504150256 | 54 | 101 | 1.7 | 6.1 | 0.00 | 0.00 | 0.00 | 63 | 1026.5 |
| 20260504140856 | 49 | 84 | 1.7 | 5.2 | 0.00 | 0.00 | 0.00 | 73 | 1026.5 |
| 20260504130556 | 43 | 18 | 1.7 | 3.5 | 0.00 | 0.00 | 0.00 | 79 | 1026.1 |
| 20260504100555 | 46 | 331 | 3.5 | 7.0 | 0.00 | 0.00 | 0.00 | 72 | 1025.3 |
| 20260504081755 | 49 | 347 | 5.2 | 7.0 | 0.00 | 0.00 | 0.00 | 69 | 1025.0 |
| 20260504080855 | 49 | 327 | 3.5 | 7.0 | 0.00 | 0.00 | 0.00 | 71 | 1025.1 |
| 20260504045955 | 55 | 320 | 7.0 | 7.8 | 0.00 | 0.00 | 0.00 | 63 | 1024.2 |
| 20260504045055 | 55 | 318 | 7.0 | 8.7 | 0.00 | 0.00 | 0.00 | 63 | 1024.3 |
| 20260504044155 | 56 | 321 | 6.1 | 8.7 | 0.00 | 0.00 | 0.00 | 61 | 1024.0 |
| 20260504043255 | 57 | 318 | 6.1 | 9.6 | 0.00 | 0.00 | 0.00 | 60 | 1024.1 |
| 20260504042355 | 57 | 321 | 7.0 | 8.7 | 0.00 | 0.00 | 0.00 | 60 | 1024.1 |
| 20260504041455 | 58 | 321 | 5.2 | 9.6 | 0.00 | 0.00 | 0.00 | 57 | 1024.0 |
| 20260504040555 | 58 | 323 | 6.1 | 9.6 | 0.00 | 0.00 | 0.00 | 56 | 1023.9 |
| 20260504034755 | 60 | 338 | 4.3 | 8.7 | 0.00 | 0.00 | 0.00 | 54 | 1023.7 |
| 20260504033855 | 59 | 332 | 7.0 | 8.7 | 0.00 | 0.00 | 0.00 | 59 | 1023.6 |
| 20260504032955 | 58 | 316 | 7.0 | 8.7 | 0.00 | 0.00 | 0.00 | 63 | 1023.6 |
| 20260504032055 | 59 | 314 | 7.0 | 8.7 | 0.00 | 0.00 | 0.00 | 62 | 1023.5 |
| 20260504030254 | 60 | 314 | 7.0 | 8.7 | 0.00 | 0.00 | 0.00 | 60 | 1023.2 |
| 20260504025355 | 61 | 314 | 6.1 | 7.8 | 0.00 | 0.00 | 0.00 | 58 | 1023.3 |
| 20260504024454 | 62 | 327 | 5.2 | 8.7 | 0.00 | 0.00 | 0.00 | 53 | 1023.2 |
| 20260504023554 | 62 | 329 | 7.0 | 9.6 | 0.00 | 0.00 | 0.00 | 54 | 1023.2 |
| 20260504022655 | 62 | 318 | 8.7 | 10.4 | 0.00 | 0.00 | 0.00 | 52 | 1023.1 |
| 20260504021754 | 62 | 320 | 7.8 | 9.6 | 0.00 | 0.00 | 0.00 | 53 | 1022.8 |
| 20260504020855 | 62 | 314 | 7.8 | 9.6 | 0.00 | 0.00 | 0.00 | 55 | 1023.0 |
| 20260504015954 | 62 | 315 | 7.8 | 9.6 | 0.00 | 0.00 | 0.00 | 56 | 1022.8 |
| 20260504015055 | 63 | 315 | 7.8 | 9.6 | 0.00 | 0.00 | 0.00 | 54 | 1022.7 |
| 20260504014154 | 63 | 314 | 7.8 | 9.6 | 0.00 | 0.00 | 0.00 | 54 | 1022.7 |
| 20260504013254 | 64 | 316 | 7.8 | 9.6 | 0.00 | 0.00 | 0.00 | 52 | 1022.6 |
| 20260504010554 | 67 | 314 | 7.8 | 8.7 | 0.00 | 0.00 | 0.00 | 45 | 1022.5 |
| 20260504003854 | 75 | 314 | 4.3 | 7.0 | 0.00 | 0.00 | 0.00 | 32 | 1022.9 |
| 20260504002954 | 78 | 324 | 4.3 | 6.1 | 0.00 | 0.00 | 0.00 | 25 | 1023.0 |
| 20260504002055 | 82 | 335 | 3.5 | 7.0 | 0.00 | 0.00 | 0.00 | 20 | 1023.0 |
| 20260504001154 | 85 | 38 | 0.9 | 3.5 | 0.00 | 0.00 | 0.00 | 12 | 1023.2 |
| 20260504000254 | 85 | 53 | 0.9 | 2.6 | 0.00 | 0.00 | 0.00 | 10 | 1023.3 |
| 20260503235354 | 85 | 158 | 0.9 | 7.0 | 0.00 | 0.00 | 0.00 | 10 | 1023.4 |
| 20260503231754 | 84 | 156 | 3.5 | 7.0 | 0.00 | 0.00 | 0.00 | 10 | 1023.8 |
| 20260503230854 | 84 | 155 | 1.7 | 6.1 | 0.00 | 0.00 | 0.00 | 10 | 1023.9 |
| 20260503225954 | 84 | 144 | 1.7 | 7.0 | 0.00 | 0.00 | 0.00 | 10 | 1024.1 |
| 20260503225054 | 84 | 176 | 2.6 | 7.0 | 0.00 | 0.00 | 0.00 | 10 | 1024.2 |
| 20260503223254 | 85 | 139 | 3.5 | 4.3 | 0.00 | 0.00 | 0.00 | 10 | 1024.5 |
| 20260503222354 | 84 | 120 | 2.6 | 5.2 | 0.00 | 0.00 | 0.00 | 10 | 1024.7 |
| 20260503221454 | 84 | 121 | 0.0 | 5.2 | 0.00 | 0.00 | 0.00 | 10 | 1024.8 |
| 20260503220554 | 83 | 128 | 1.7 | 6.1 | 0.00 | 0.00 | 0.00 | 10 | 1025.0 |